�N����,����,�~����,�C��,���x,�C��,����,���ϕ���,�ő�u�ԕ���,�ő厞����,���˗�,�I�_���x,�n�����x,�ő啗���N��,DTYPE
"20/12/21","00:10",0.0,0.7,94.6,1019.0,287.2,0.8,1.4,259.7,0.00,0.0,6.0,"00:07:36",1
"20/12/21","00:20",0.0,0.7,94.8,1019.0,301.6,2.0,2.9,314.0,0.00,0.0,6.0,"00:12:56",1
"20/12/21","00:30",0.0,0.8,94.8,1019.0,314.4,2.2,2.7,320.1,0.00,0.1,6.1,"00:24:56",1
"20/12/21","00:40",0.0,0.8,94.9,1019.0,308.4,2.1,3.2,309.3,0.00,0.1,5.9,"00:36:00",1
"20/12/21","00:50",0.0,0.9,94.9,1019.2,296.0,1.7,2.5,299.5,0.00,0.2,5.8,"00:44:00",1
"20/12/21","01:00",0.0,0.9,95.0,1019.0,277.1,0.5,1.4,325.1,0.00,0.2,5.8,"00:50:48",1
"20/12/21","01:10",0.0,0.7,95.2,1018.7,302.3,1.3,3.2,322.3,0.00,0.1,5.9,"01:07:58",1
"20/12/21","01:20",0.0,0.6,95.3,1018.7,313.8,2.1,2.7,309.3,0.00,0.0,5.6,"01:12:00",1
"20/12/21","01:30",0.0,1.5,95.4,1018.7,317.2,3.5,5.1,325.8,0.00,0.9,5.7,"01:26:26",1
"20/12/21","01:40",0.0,1.7,95.2,1018.7,325.6,3.1,5.5,338.2,0.00,1.1,5.8,"01:32:24",1
"20/12/21","01:50",0.0,1.5,95.3,1018.7,322.2,2.1,3.3,314.8,0.00,0.9,5.6,"01:43:52",1
"20/12/21","02:00",0.0,1.2,95.3,1018.2,306.5,1.7,3.1,316.8,0.00,0.6,5.8,"01:52:40",1
"20/12/21","02:10",0.0,0.9,95.6,1018.5,306.4,1.8,2.6,324.8,0.00,0.3,5.7,"02:04:08",1
"20/12/21","02:20",0.0,0.9,95.7,1018.5,317.6,2.0,2.8,321.9,0.00,0.3,5.8,"02:14:56",1
"20/12/21","02:30",0.0,1.0,95.8,1018.2,290.9,2.1,3.1,317.3,0.00,0.4,5.9,"02:20:16",1
"20/12/21","02:40",0.0,1.2,95.8,1018.5,290.4,2.1,2.6,298.2,0.00,0.6,5.6,"02:38:08",1
"20/12/21","02:50",0.0,1.4,95.9,1018.5,287.9,2.0,2.5,303.9,0.00,0.9,5.7,"02:46:40",1
"20/12/21","03:00",0.0,1.6,95.9,1018.5,308.9,2.3,3.1,313.1,0.00,1.1,6.0,"02:57:36",1
"20/12/21","03:10",0.0,1.6,95.9,1018.5,308.2,2.0,2.6,325.7,0.00,1.1,5.6,"03:03:04",1
"20/12/21","03:20",0.0,1.8,95.9,1018.7,309.6,3.0,4.2,317.2,0.00,1.3,5.7,"03:18:16",1
"20/12/21","03:30",0.0,2.0,95.8,1019.0,311.9,2.7,4.4,334.0,0.00,1.4,5.8,"03:21:20",1
"20/12/21","03:40",0.0,1.8,95.7,1018.5,293.2,1.7,2.7,311.5,0.00,1.2,5.5,"03:31:52",1
"20/12/21","03:50",0.0,1.7,95.8,1018.2,319.4,1.8,2.7,327.4,0.00,1.1,5.7,"03:43:44",1
"20/12/21","04:00",0.0,1.8,95.9,1018.0,299.5,2.2,4.2,335.5,0.00,1.3,5.8,"03:58:32",1
"20/12/21","04:10",0.0,1.9,95.7,1018.2,281.2,2.1,3.4,307.1,0.00,1.3,5.7,"04:00:16",1
"20/12/21","04:20",0.0,1.8,95.8,1018.5,301.9,2.3,3.2,314.8,0.00,1.2,5.8,"04:18:48",1
"20/12/21","04:30",0.0,2.0,95.7,1018.5,308.4,2.7,4.3,326.9,0.00,1.4,5.8,"04:20:56",1
"20/12/21","04:40",0.0,1.9,95.6,1018.5,324.5,2.3,3.6,326.5,0.00,1.3,5.9,"04:35:52",1
"20/12/21","04:50",0.0,1.8,95.5,1018.5,319.4,2.3,3.2,309.8,0.00,1.2,5.7,"04:41:04",1
"20/12/21","05:00",0.0,1.6,95.5,1018.5,322.6,2.5,3.4,332.3,0.00,1.0,5.7,"04:52:24",1
"20/12/21","05:10",0.0,1.7,95.5,1018.5,330.5,1.8,3.6,318.6,0.00,1.1,5.9,"05:00:08",1
"20/12/21","05:20",0.0,1.8,95.5,1018.5,327.0,2.0,2.9,333.8,0.00,1.2,5.6,"05:13:04",1
"20/12/21","05:30",0.0,1.8,95.4,1018.5,314.1,1.7,3.2,314.2,0.00,1.2,5.8,"05:24:56",1
"20/12/21","05:40",0.0,1.7,95.4,1018.7,273.7,0.7,2.4,310.0,0.00,1.1,5.6,"05:38:56",1
"20/12/21","05:50",0.0,1.6,95.3,1018.7,306.6,1.6,2.6,313.4,0.00,1.0,5.8,"05:42:24",1
"20/12/21","06:00",0.0,1.7,95.3,1019.2,318.5,1.0,2.1,327.5,0.00,1.1,5.8,"05:50:24",1
"20/12/21","06:10",0.0,1.6,95.3,1019.0,279.8,1.7,2.7,261.9,0.00,1.0,5.8,"06:08:56",1
"20/12/21","06:20",0.0,1.6,95.3,1019.2,253.5,1.8,2.5,238.3,0.00,1.0,5.7,"06:11:36",1
"20/12/21","06:30",0.0,1.5,95.2,1019.2,291.7,1.8,2.1,300.7,0.00,0.9,5.6,"06:23:12",1
"20/12/21","06:40",0.0,1.5,95.3,1019.4,319.6,2.1,3.2,335.5,0.00,0.9,5.8,"06:33:28",1
"20/12/21","06:50",0.0,1.4,95.2,1019.2,278.1,1.0,2.2,319.7,0.00,0.8,5.7,"06:40:16",1
"20/12/21","07:00",0.0,1.5,95.3,1019.4,239.3,0.5,1.1,281.7,0.00,0.9,5.6,"06:59:12",1
"20/12/21","07:10",0.0,1.5,95.3,1019.4,258.2,0.6,1.2,293.3,0.00,0.9,5.8,"07:08:24",1
"20/12/21","07:20",0.0,1.6,95.3,1019.4,296.3,0.5,1.4,307.3,0.00,1.0,5.8,"07:19:36",1
"20/12/21","07:30",0.0,1.7,95.3,1019.4,319.5,1.3,2.7,315.5,0.00,1.1,5.8,"07:26:00",1
"20/12/21","07:40",0.0,2.0,95.4,1019.4,306.5,1.2,2.4,343.9,0.00,1.4,5.8,"07:34:56",1
"20/12/21","07:50",0.0,2.1,95.3,1019.7,276.1,0.6,1.1,280.0,0.00,1.5,5.9,"07:49:44",1
"20/12/21","08:00",0.0,2.3,95.3,1019.7,282.6,0.8,1.7,310.3,0.02,1.7,5.8,"07:57:52",1
"20/12/21","08:10",0.0,2.4,95.1,1019.7,260.3,1.1,1.4,226.7,0.03,1.7,6.1,"08:08:00",1
"20/12/21","08:20",0.0,2.6,95.1,1019.7,240.1,1.1,1.7,224.8,0.05,1.9,6.0,"08:10:32",1
"20/12/21","08:30",0.0,2.9,94.7,1019.4,223.9,0.8,1.8,192.6,0.07,2.2,6.0,"08:27:06",1
"20/12/21","08:40",0.0,3.3,94.9,1019.9,222.7,0.7,1.4,203.8,0.09,2.6,6.1,"08:31:44",1
"20/12/21","08:50",0.0,3.5,94.6,1019.9,189.8,0.6,1.1,104.7,0.08,2.8,6.2,"08:42:00",1
"20/12/21","09:00",0.0,4.0,93.7,1019.9,205.5,1.0,1.7,219.9,0.15,3.1,6.4,"08:58:34",1
"20/12/21","09:10",0.0,3.6,93.3,1020.1,221.1,1.0,2.1,198.5,0.09,2.7,6.5,"09:00:42",1
"20/12/21","09:20",0.0,4.4,92.8,1020.1,211.9,1.0,1.8,210.3,0.19,3.4,6.6,"09:13:52",1
"20/12/21","09:30",0.0,5.0,91.4,1020.6,201.8,1.0,2.6,231.9,0.19,3.8,6.9,"09:25:54",1
"20/12/21","09:40",0.0,5.8,90.1,1020.8,181.5,1.0,1.8,149.2,0.24,4.3,6.9,"09:30:16",1
"20/12/21","09:50",0.0,5.7,88.8,1021.1,120.9,1.7,3.1,114.5,0.25,4.0,7.0,"09:45:52",1
"20/12/21","10:00",0.0,5.9,86.6,1020.8,116.0,1.7,3.6,104.0,0.29,3.9,7.5,"09:50:24",1
"20/12/21","10:10",0.0,5.9,85.0,1021.1,108.5,1.2,3.1,106.6,0.19,3.6,7.3,"10:03:52",1
"20/12/21","10:20",0.0,6.8,83.8,1020.8,126.4,1.0,2.7,107.1,0.28,4.3,7.6,"10:13:04",1
"20/12/21","10:30",0.0,6.6,81.1,1021.1,159.4,1.0,1.7,107.7,0.13,3.6,7.6,"10:26:50",1
"20/12/21","10:40",0.0,6.7,79.6,1021.1,184.8,1.3,3.2,216.0,0.14,3.5,7.7,"10:33:12",1
"20/12/21","10:50",0.0,7.1,77.6,1021.3,272.7,1.7,2.8,246.1,0.12,3.5,7.5,"10:46:04",1
"20/12/21","11:00",0.0,7.3,75.6,1021.1,267.5,1.8,3.7,257.0,0.12,3.3,7.6,"10:55:22",1
"20/12/21","11:10",0.0,7.4,73.8,1020.8,247.8,2.1,3.7,243.6,0.14,3.1,7.9,"11:02:36",1
"20/12/21","11:20",0.0,7.5,72.2,1020.8,290.4,2.7,4.4,300.7,0.17,2.9,8.0,"11:18:38",1
"20/12/21","11:30",0.0,7.4,70.8,1020.6,282.4,2.7,4.2,264.0,0.15,2.5,8.0,"11:27:34",1
"20/12/21","11:40",0.0,7.6,70.7,1020.8,320.5,3.7,5.9,338.2,0.20,2.7,7.9,"11:36:58",1
"20/12/21","11:50",0.0,7.7,71.2,1020.6,314.3,3.5,6.6,341.5,0.20,2.9,8.0,"11:47:06",1
"20/12/21","12:00",0.0,7.6,70.5,1020.4,281.9,2.7,4.8,309.8,0.18,2.6,8.3,"11:57:34",1
"20/12/21","12:10",0.0,8.3,70.6,1019.9,308.6,3.1,5.8,328.1,0.46,3.3,8.8,"12:00:48",1
"20/12/21","12:20",0.0,8.9,67.7,1020.1,311.4,3.4,7.3,337.0,0.53,3.3,8.8,"12:14:38",1
"20/12/21","12:30",0.0,9.0,64.9,1019.9,284.2,3.0,6.6,325.2,0.38,2.8,9.1,"12:21:12",1
"20/12/21","12:40",0.0,8.6,65.9,1019.7,298.9,3.0,5.7,342.0,0.26,2.6,9.3,"12:30:16",1
"20/12/21","12:50",0.0,9.6,64.6,1019.4,273.5,2.1,4.2,341.9,0.45,3.3,9.4,"12:47:12",1
"20/12/21","13:00",0.0,9.9,62.1,1019.4,308.7,3.0,5.5,329.4,0.44,3.0,9.7,"12:55:36",1
"20/12/21","13:10",0.0,9.8,60.9,1019.0,291.3,2.8,5.5,352.1,0.39,2.7,10.0,"13:00:56",1
"20/12/21","13:20",0.0,9.0,60.7,1019.0,286.5,3.2,5.4,318.3,0.20,1.9,9.9,"13:16:16",1
"20/12/21","13:30",0.0,9.6,60.5,1019.0,292.6,2.6,4.5,333.1,0.37,2.4,9.9,"13:28:40",1
"20/12/21","13:40",0.0,9.9,58.7,1018.7,306.7,2.7,4.9,334.4,0.37,2.2,10.2,"13:32:48",1
"20/12/21","13:50",0.0,10.1,56.6,1019.0,275.6,2.5,4.9,255.3,0.35,1.9,10.3,"13:49:52",1
"20/12/21","14:00",0.0,10.6,55.4,1018.7,278.1,2.6,5.9,331.3,0.35,2.1,10.3,"13:57:44",1
"20/12/21","14:10",0.0,11.2,54.4,1018.5,285.1,2.3,4.8,331.3,0.34,2.4,10.6,"14:01:12",1
"20/12/21","14:20",0.0,10.6,53.7,1018.5,300.7,3.0,6.3,335.3,0.31,1.6,10.6,"14:19:44",1
"20/12/21","14:30",0.0,10.6,54.6,1018.5,313.2,3.0,5.4,334.7,0.28,1.9,10.6,"14:25:12",1
"20/12/21","14:40",0.0,10.0,53.5,1018.5,310.3,3.9,8.5,339.2,0.23,1.0,10.6,"14:33:04",1
"20/12/21","14:50",0.0,10.2,56.4,1018.5,328.8,3.2,5.8,337.5,0.21,2.0,10.6,"14:49:38",1
"20/12/21","15:00",0.0,9.4,58.5,1018.5,346.7,2.8,4.9,330.9,0.11,1.7,10.5,"14:54:56",1
"20/12/21","15:10",0.0,9.7,58.4,1018.7,334.8,3.4,5.9,349.4,0.18,2.0,10.5,"15:05:12",1
"20/12/21","15:20",0.0,9.1,57.6,1019.0,322.4,4.5,7.4,318.4,0.15,1.2,10.6,"15:19:40",1
"20/12/21","15:30",0.0,9.0,57.7,1019.0,324.3,4.4,6.3,341.9,0.13,1.2,10.2,"15:20:56",1
"20/12/21","15:40",0.0,8.5,59.4,1019.2,327.2,4.9,7.8,329.9,0.05,1.1,10.2,"15:34:56",1
"20/12/21","15:50",0.0,8.1,61.7,1019.2,330.2,4.0,5.7,315.9,0.02,1.2,10.0,"15:43:44",1
"20/12/21","16:00",0.0,7.8,62.7,1019.2,325.1,3.5,4.9,337.7,0.02,1.2,9.8,"15:52:16",1
"20/12/21","16:10",0.0,7.8,62.8,1019.0,317.1,4.5,7.3,309.1,0.01,1.2,9.6,"16:04:12",1
"20/12/21","16:20",0.0,7.5,63.7,1019.0,317.0,3.2,4.5,316.3,0.00,1.1,9.5,"16:10:56",1
"20/12/21","16:30",0.0,7.2,64.8,1019.2,302.6,2.6,3.4,308.2,0.00,1.1,9.3,"16:21:12",1
"20/12/21","16:40",0.0,7.2,66.1,1019.4,316.6,3.1,4.9,322.9,0.00,1.3,9.2,"16:36:08",1
"20/12/21","16:50",0.0,7.1,67.0,1019.2,305.1,2.6,4.1,325.7,0.00,1.4,9.0,"16:40:40",1
"20/12/21","17:00",0.0,7.0,67.9,1019.0,291.4,2.5,3.3,305.7,0.00,1.5,9.0,"16:51:52",1
"20/12/21","17:10",0.0,6.7,68.6,1019.2,294.8,2.1,2.8,304.5,0.00,1.4,9.0,"17:00:56",1
"20/12/21","17:20",0.0,6.2,69.8,1019.0,323.7,2.1,3.2,315.6,0.00,1.1,8.9,"17:16:08",1
"20/12/21","17:30",0.0,5.8,70.9,1019.2,329.4,1.5,2.2,317.2,0.00,1.0,8.9,"17:27:44",1
"20/12/21","17:40",0.0,5.2,72.2,1019.2,321.0,2.1,2.9,319.6,0.00,0.6,8.6,"17:33:20",1
"20/12/21","17:50",0.0,4.7,73.5,1019.2,323.8,2.0,2.4,320.4,0.00,0.4,8.6,"17:40:08",1
"20/12/21","18:00",0.0,4.6,74.8,1019.0,326.0,1.6,2.6,353.0,0.00,0.6,8.4,"17:59:44",1
"20/12/21","18:10",0.0,4.2,75.9,1018.5,330.8,1.7,2.4,322.7,0.00,0.4,8.2,"18:08:24",1
"20/12/21","18:20",0.0,4.0,77.2,1018.7,336.4,1.5,2.5,327.7,0.00,0.4,8.2,"18:10:02",1
"20/12/21","18:30",0.0,3.6,78.2,1018.7,312.9,1.5,2.4,319.3,0.00,0.2,8.1,"18:20:48",1
"20/12/21","18:40",0.0,3.2,79.2,1019.0,291.7,1.2,1.7,318.1,0.00,0.0,8.0,"18:37:28",1
"20/12/21","18:50",0.0,3.3,80.2,1019.2,316.7,2.3,3.1,324.1,0.00,0.3,7.7,"18:48:24",1
"20/12/21","19:00",0.0,3.0,81.1,1019.0,302.4,1.3,2.8,329.6,0.00,0.1,7.5,"18:50:08",1
"20/12/21","19:10",0.0,2.6,82.0,1018.5,288.7,1.3,2.5,316.9,0.00,-0.1,7.4,"19:04:56",1
"20/12/21","19:20",0.0,2.3,82.9,1019.0,293.0,1.8,3.1,309.8,0.00,-0.3,7.2,"19:15:04",1
"20/12/21","19:30",0.0,2.1,83.9,1019.2,279.3,1.0,1.4,281.9,0.00,-0.3,7.2,"19:20:32",1
"20/12/21","19:40",0.0,2.1,84.7,1019.0,276.3,1.6,2.6,312.5,0.00,-0.2,7.2,"19:37:36",1
"20/12/21","19:50",0.0,1.7,85.4,1019.2,322.1,2.6,3.3,326.5,0.00,-0.4,7.0,"19:44:00",1
"20/12/21","20:00",0.0,1.4,86.3,1018.7,313.8,2.2,2.9,320.5,0.00,-0.6,7.0,"19:53:20",1
"20/12/21","20:10",0.0,1.4,86.9,1018.7,300.7,1.7,2.4,314.7,0.00,-0.5,7.0,"20:02:16",1
"20/12/21","20:20",0.0,1.6,87.6,1018.7,294.6,1.8,2.9,318.4,0.00,-0.2,6.8,"20:19:28",1
"20/12/21","20:30",0.0,1.7,88.0,1018.7,320.4,2.5,3.6,333.1,0.00,0.0,6.6,"20:26:08",1
"20/12/21","20:40",0.0,1.8,88.6,1018.7,303.4,2.3,3.4,313.2,0.00,0.2,6.7,"20:35:12",1
"20/12/21","20:50",0.0,1.7,89.1,1019.4,302.8,1.8,3.3,324.5,0.00,0.1,6.6,"20:49:52",1
"20/12/21","21:00",0.0,1.8,89.5,1019.2,318.1,1.5,3.3,323.6,0.00,0.3,6.6,"20:51:12",1
"20/12/21","21:10",0.0,1.5,89.9,1019.4,282.1,1.6,2.7,319.2,0.00,0.1,6.6,"21:01:20",1
"20/12/21","21:20",0.0,1.5,90.3,1019.4,287.0,1.7,3.5,312.8,0.00,0.1,6.4,"21:12:40",1
"20/12/21","21:30",0.0,1.6,90.7,1019.2,309.3,2.6,3.9,320.5,0.00,0.3,6.5,"21:22:32",1
"20/12/21","21:40",0.0,1.9,91.0,1019.7,304.3,2.3,3.4,321.2,0.00,0.6,6.4,"21:37:04",1
"20/12/21","21:50",0.0,2.0,91.2,1019.7,300.4,0.6,1.8,299.3,0.00,0.8,6.5,"21:40:08",1
"20/12/21","22:00",0.0,2.0,91.4,1019.7,299.7,1.8,3.1,318.6,0.00,0.8,6.3,"21:56:24",1
"20/12/21","22:10",0.0,1.8,91.6,1019.9,295.6,1.5,2.4,307.9,0.00,0.6,6.5,"22:02:40",1
"20/12/21","22:20",0.0,1.8,91.9,1019.7,311.3,2.1,3.5,324.1,0.00,0.7,6.6,"22:17:52",1
"20/12/21","22:30",0.0,1.9,92.2,1019.9,295.2,2.1,2.8,318.5,0.00,0.8,6.3,"22:28:56",1
"20/12/21","22:40",0.0,2.2,92.3,1019.7,319.3,1.8,2.6,327.1,0.00,1.1,6.6,"22:32:16",1
"20/12/21","22:50",0.0,2.2,92.4,1019.9,267.1,1.1,1.7,282.3,0.00,1.1,6.6,"22:42:00",1
"20/12/21","23:00",0.0,2.4,92.6,1019.9,265.0,0.3,0.9,276.5,0.00,1.4,6.4,"22:50:08",1
"20/12/21","23:10",0.0,2.6,92.6,1019.7,309.0,1.2,3.1,327.2,0.00,1.6,6.5,"23:08:16",1
"20/12/21","23:20",0.0,2.5,92.8,1019.7,301.8,2.2,2.9,317.9,0.00,1.5,6.4,"23:14:56",1
"20/12/21","23:30",0.0,2.6,92.8,1019.9,281.6,1.8,2.2,268.7,0.00,1.6,6.2,"23:26:08",1
"20/12/21","23:40",0.0,2.8,92.9,1019.9,277.9,2.0,2.9,275.3,0.00,1.8,6.5,"23:34:24",1
"20/12/21","23:50",0.0,2.8,92.8,1019.4,293.4,1.7,2.6,317.2,0.00,1.8,6.4,"23:49:28",1
"20/12/21","24:00",0.0,2.5,92.8,1019.4,322.9,2.0,2.8,306.6,0.00,1.5,6.4,"23:59:12",1
